Terminal Aerodrome Forecast
Issued by NWS

Home | Current Version | Previous Version | Text Only | Print | Product List | Glossary On
Versions: 1 2 3 4 5 6 7 8 9 10 11 12 13 14 15 16 17 18 19
000
FTUS41 KBGM 261100
TAFITH
TAF
KITH 261127Z 2612/2712 08005KT P6SM SCT250
     FM261500 24008KT P6SM BKN090
     FM261800 24007KT P6SM BKN050
     FM270100 15004KT P6SM OVC100
     FM270700 15003KT P6SM -SHRA OVC050=

USA.gov is the U.S. government's official web portal to all federal, state and local government web resources and services.